When you browse on this site, cookies collect data to enhance your experience and personalize the content and advertising you see.
Visit our Privacy Policy to learn more. By continuing to use the site, you agree to this use of cookies and data.
  • In Schweiz
  • Länderverzeichnis
  • Für 7 Tage
  • Wassertemperatur
  • Wetterkarte
  • Widgets
  • user-avatar
    Anmelden

    Stündliche Wetter Gasni

    Heute, 14 Oktober, Montag

    Zeit Temperatur Niederschläge Wind Luftdruck Luftfeuchtigkeit
    00:00 +12°C° 0 mm 1 m/S 588 mmHg 24%
    01:00 +11°C° 0 mm 1 m/S 588 mmHg 26%
    02:00 +10°C° 0 mm 1 m/S 587 mmHg 27%
    03:00 +10°C° 0 mm 1 m/S 587 mmHg 27%
    04:00 +9°C° 0 mm 1 m/S 587 mmHg 27%
    05:00 +9°C° 0 mm 1 m/S 587 mmHg 26%
    06:00 +11°C° 0 mm 1 m/S 588 mmHg 23%
    07:00 +12°C° 0 mm 1 m/S 589 mmHg 20%
    08:00 +14°C° 0 mm 1 m/S 590 mmHg 18%
    09:00 +16°C° 0 mm 1 m/S 591 mmHg 15%
    10:00 +18°C° 0 mm 1 m/S 591 mmHg 13%
    11:00 +20°C° 0 mm 1 m/S 592 mmHg 11%
    12:00 +21°C° 0 mm 1 m/S 592 mmHg 10%
    13:00 +21°C° 0 mm 2 m/S 591 mmHg 9%
    14:00 +23°C° 0 mm 2 m/S 591 mmHg 9%
    15:00 +23°C° 0 mm 2 m/S 591 mmHg 9%
    16:00 +23°C° 0 mm 2 m/S 591 mmHg 9%
    17:00 +21°C° 0 mm 2 m/S 591 mmHg 10%
    18:00 +19°C° 0 mm 2 m/S 590 mmHg 13%
    19:00 +17°C° 0 mm 2 m/S 590 mmHg 16%
    20:00 +15°C° 0 mm 2 m/S 589 mmHg 19%
    21:00 +14°C° 0 mm 2 m/S 589 mmHg 20%
    22:00 +13°C° 0 mm 2 m/S 589 mmHg 22%
    23:00 +12°C° 0 mm 2 m/S 589 mmHg 23%

    Morgen, 15 Oktober, Dienstag

    Zeit Temperatur Niederschläge Wind Luftdruck Luftfeuchtigkeit
    00:00 +12°C° 0 mm 2 m/S 589 mmHg 25%
    01:00 +10°C° 0 mm 2 m/S 588 mmHg 27%
    02:00 +10°C° 0 mm 1 m/S 588 mmHg 29%
    03:00 +10°C° 0 mm 1 m/S 588 mmHg 30%
    04:00 +8°C° 0 mm 2 m/S 588 mmHg 31%
    05:00 +8°C° 0 mm 2 m/S 587 mmHg 32%
    06:00 +9°C° 0 mm 2 m/S 588 mmHg 29%
    07:00 +11°C° 0 mm 1 m/S 589 mmHg 27%
    08:00 +13°C° 0 mm 1 m/S 590 mmHg 25%
    09:00 +14°C° 0 mm 1 m/S 590 mmHg 21%
    10:00 +16°C° 0 mm 1 m/S 591 mmHg 18%
    11:00 +19°C° 0 mm 1 m/S 592 mmHg 15%
    12:00 +19°C° 0 mm 2 m/S 592 mmHg 13%
    13:00 +20°C° 0 mm 2 m/S 592 mmHg 12%
    14:00 +23°C° 0 mm 2 m/S 592 mmHg 11%
    15:00 +21°C° 0 mm 2 m/S 591 mmHg 11%
    16:00 +21°C° 0 mm 2 m/S 591 mmHg 11%
    17:00 +21°C° 0 mm 2 m/S 591 mmHg 11%
    18:00 +19°C° 0 mm 2 m/S 590 mmHg 14%
    19:00 +16°C° 0 mm 2 m/S 590 mmHg 18%
    20:00 +14°C° 0 mm 2 m/S 589 mmHg 21%
    21:00 +13°C° 0 mm 2 m/S 589 mmHg 23%
    22:00 +12°C° 0 mm 1 m/S 589 mmHg 25%
    23:00 +11°C° 0 mm 1 m/S 588 mmHg 27%

    übermorgen, 16 Oktober, Mittwoch

    Zeit Temperatur Niederschläge Wind Luftdruck Luftfeuchtigkeit
    00:00 +11°C° 0 mm 1 m/S 588 mmHg 29%
    01:00 +9°C° 0 mm 0 m/S 588 mmHg 31%
    02:00 +8°C° 0 mm 0 m/S 587 mmHg 33%
    03:00 +8°C° 0 mm 0 m/S 587 mmHg 34%
    04:00 +8°C° 0 mm 0 m/S 587 mmHg 34%
    05:00 +7°C° 0 mm 0 m/S 587 mmHg 35%
    06:00 +9°C° 0 mm 0 m/S 588 mmHg 32%
    07:00 +10°C° 0 mm 0 m/S 589 mmHg 29%
    08:00 +12°C° 0 mm 0 m/S 590 mmHg 26%
    09:00 +14°C° 0 mm 1 m/S 590 mmHg 23%
    10:00 +16°C° 0 mm 1 m/S 590 mmHg 21%
    11:00 +18°C° 0 mm 1 m/S 591 mmHg 19%
    12:00 +18°C° 0 mm 2 m/S 591 mmHg 17%
    13:00 +19°C° 0 mm 2 m/S 590 mmHg 15%
    14:00 +21°C° 0 mm 3 m/S 590 mmHg 14%
    15:00 +21°C° 0 mm 4 m/S 590 mmHg 13%
    16:00 +21°C° 0 mm 4 m/S 590 mmHg 12%
    17:00 +21°C° 0 mm 5 m/S 590 mmHg 11%
    18:00 +18°C° 0 mm 4 m/S 589 mmHg 14%
    19:00 +15°C° 0 mm 4 m/S 589 mmHg 18%
    20:00 +13°C° 0 mm 4 m/S 588 mmHg 21%
    21:00 +12°C° 0 mm 3 m/S 588 mmHg 22%
    22:00 +11°C° 0 mm 3 m/S 588 mmHg 23%
    23:00 +12°C° 0 mm 2 m/S 588 mmHg 24%

    17 Oktober, Donnerstag

    Zeit Temperatur Niederschläge Wind Luftdruck Luftfeuchtigkeit
    00:00 +11°C° 0 mm 1 m/S 587 mmHg 27%
    01:00 +10°C° 0 mm 1 m/S 587 mmHg 30%
    02:00 +9°C° 0 mm 1 m/S 586 mmHg 33%
    03:00 +8°C° 0 mm 1 m/S 586 mmHg 35%
    04:00 +6°C° 0 mm 0 m/S 585 mmHg 36%
    05:00 +6°C° 0 mm 0 m/S 585 mmHg 38%
    06:00 +7°C° 0 mm 0 m/S 586 mmHg 34%
    07:00 +9°C° 0 mm 0 m/S 587 mmHg 31%
    08:00 +11°C° 0 mm 0 m/S 588 mmHg 28%
    09:00 +13°C° 0 mm 1 m/S 589 mmHg 25%
    10:00 +15°C° 0 mm 1 m/S 589 mmHg 23%
    11:00 +16°C° 0 mm 2 m/S 590 mmHg 20%
    12:00 +17°C° 0 mm 3 m/S 590 mmHg 18%
    13:00 +18°C° 0 mm 4 m/S 590 mmHg 15%
    14:00 +19°C° 0 mm 5 m/S 590 mmHg 13%
    15:00 +19°C° 0 mm 5 m/S 589 mmHg 14%
    16:00 +19°C° 0 mm 5 m/S 589 mmHg 14%
    17:00 +17°C° 0 mm 6 m/S 589 mmHg 15%
    18:00 +15°C° 0 mm 4 m/S 589 mmHg 17%
    19:00 +13°C° 0 mm 3 m/S 588 mmHg 20%
    20:00 +12°C° 0 mm 2 m/S 588 mmHg 22%
    21:00 +12°C° 0 mm 2 m/S 588 mmHg 24%
    22:00 +10°C° 0 mm 2 m/S 587 mmHg 26%
    23:00 +10°C° 0 mm 1 m/S 587 mmHg 29%

    18 Oktober, Freitag

    Zeit Temperatur Niederschläge Wind Luftdruck Luftfeuchtigkeit
    00:00 +9°C° 0 mm 1 m/S 587 mmHg 30%
    01:00 +9°C° 0 mm 1 m/S 586 mmHg 31%
    02:00 +9°C° 0 mm 1 m/S 586 mmHg 32%
    03:00 +8°C° 0 mm 1 m/S 586 mmHg 33%
    04:00 +8°C° 0 mm 1 m/S 586 mmHg 33%
    05:00 +8°C° 0 mm 1 m/S 585 mmHg 34%
    06:00 +9°C° 0 mm 1 m/S 586 mmHg 32%
    07:00 +10°C° 0 mm 1 m/S 587 mmHg 29%
    08:00 +12°C° 0 mm 1 m/S 589 mmHg 26%
    09:00 +13°C° 0 mm 1 m/S 589 mmHg 24%
    10:00 +15°C° 0 mm 1 m/S 590 mmHg 22%
    11:00 +16°C° 0 mm 1 m/S 590 mmHg 20%
    12:00 +17°C° 0 mm 2 m/S 590 mmHg 18%
    13:00 +18°C° 0 mm 3 m/S 590 mmHg 16%
    14:00 +18°C° 0 mm 3 m/S 590 mmHg 15%
    15:00 +18°C° 0 mm 3 m/S 590 mmHg 14%
    16:00 +18°C° 0 mm 3 m/S 589 mmHg 13%
    17:00 +18°C° 0 mm 3 m/S 589 mmHg 12%
    18:00 +15°C° 0 mm 2 m/S 588 mmHg 17%
    19:00 +13°C° 0 mm 2 m/S 588 mmHg 21%
    20:00 +11°C° 0 mm 1 m/S 587 mmHg 26%
    21:00 +11°C° 0 mm 1 m/S 587 mmHg 30%
    22:00 +10°C° 0 mm 1 m/S 587 mmHg 35%
    23:00 +9°C° 0 mm 1 m/S 587 mmHg 40%

    19 Oktober, Samstag

    Zeit Temperatur Niederschläge Wind Luftdruck Luftfeuchtigkeit
    00:00 +9°C° 0 mm 1 m/S 587 mmHg 43%
    01:00 +7°C° 0 mm 0 m/S 586 mmHg 46%
    02:00 +7°C° 0 mm 0 m/S 586 mmHg 49%
    03:00 +6°C° 0 mm 0 m/S 586 mmHg 50%
    04:00 +6°C° 0 mm 0 m/S 586 mmHg 50%
    05:00 +5°C° 0 mm 0 m/S 586 mmHg 51%
    06:00 +7°C° 0 mm 0 m/S 587 mmHg 46%
    07:00 +8°C° 0 mm 0 m/S 588 mmHg 41%
    08:00 +10°C° 0 mm 0 m/S 589 mmHg 36%
    09:00 +13°C° 0 mm 1 m/S 590 mmHg 33%
    10:00 +14°C° 0 mm 1 m/S 590 mmHg 29%
    11:00 +16°C° 0 mm 1 m/S 591 mmHg 25%
    12:00 +17°C° 0 mm 2 m/S 591 mmHg 22%
    13:00 +18°C° 0 mm 3 m/S 591 mmHg 19%
    14:00 +19°C° 0 mm 4 m/S 591 mmHg 16%
    15:00 +19°C° 0 mm 4 m/S 591 mmHg 15%
    16:00 +19°C° 0 mm 5 m/S 590 mmHg 15%
    17:00 +17°C° 0 mm 5 m/S 590 mmHg 14%
    18:00 +17°C° 0 mm 4 m/S 590 mmHg 16%
    19:00 +14°C° 0 mm 4 m/S 589 mmHg 19%
    20:00 +13°C° 0 mm 3 m/S 589 mmHg 22%
    21:00 +12°C° 0 mm 3 m/S 589 mmHg 22%
    22:00 +11°C° 0 mm 3 m/S 588 mmHg 23%
    23:00 +10°C° 0 mm 3 m/S 588 mmHg 24%
    Mehr zeigen